• Em Portugal
  • Lista de países
  • Para 7 dias
  • Temperatura da água
  • Mapas de satélite
  • Mapa do tempo
  • Widgets de tempo
  • user-avatar
    Iniciar Sessão

    Previsão horária em Smecino

    Hoje, 21 Junho, Quinta-feira

    Tempo Temperatura Precipitação Vento Pressão Humidade
    00:00 +19°C° 0 mm 2 m/s 749 mmHg 83%
    01:00 +19°C° 0 mm 3 m/s 748 mmHg 80%
    02:00 +19°C° 0 mm 3 m/s 748 mmHg 82%
    03:00 +18°C° 0 mm 3 m/s 747 mmHg 84%
    04:00 +18°C° 0 mm 3 m/s 747 mmHg 86%
    05:00 +20°C° 0 mm 3 m/s 746 mmHg 80%
    06:00 +21°C° 0 mm 4 m/s 746 mmHg 74%
    07:00 +23°C° 0 mm 4 m/s 745 mmHg 66%
    08:00 +25°C° 0 mm 4 m/s 745 mmHg 59%
    09:00 +26°C° 0 mm 5 m/s 744 mmHg 53%
    10:00 +27°C° 0 mm 6 m/s 743 mmHg 46%
    11:00 +24°C° 0,5 mm 6 m/s 743 mmHg 58%
    12:00 +22°C° 0,5 mm 6 m/s 743 mmHg 70%
    13:00 +20°C° 0,5 mm 6 m/s 742 mmHg 82%
    14:00 +17°C° 0,6 mm 6 m/s 743 mmHg 85%
    15:00 +15°C° 0,6 mm 5 m/s 743 mmHg 89%
    16:00 +13°C° 0,6 mm 5 m/s 743 mmHg 92%
    17:00 +13°C° 0,3 mm 5 m/s 743 mmHg 90%
    18:00 +11°C° 0,3 mm 6 m/s 743 mmHg 89%
    19:00 +11°C° 0,3 mm 6 m/s 744 mmHg 87%
    20:00 +10°C° 0,3 mm 6 m/s 744 mmHg 88%
    21:00 +10°C° 0,3 mm 6 m/s 744 mmHg 89%
    22:00 +9°C° 0,3 mm 6 m/s 745 mmHg 89%
    23:00 +8°C° 0,1 mm 6 m/s 745 mmHg 89%

    Amanhã, 22 Junho, Sexta-feira

    Tempo Temperatura Precipitação Vento Pressão Humidade
    00:00 +8°C° 0,1 mm 6 m/s 745 mmHg 88%
    01:00 +8°C° 0,1 mm 6 m/s 745 mmHg 87%
    02:00 +8°C° 0,1 mm 7 m/s 745 mmHg 86%
    03:00 +6°C° 0,1 mm 7 m/s 745 mmHg 86%
    04:00 +6°C° 0,1 mm 7 m/s 745 mmHg 85%
    05:00 +8°C° 0,1 mm 7 m/s 745 mmHg 81%
    06:00 +9°C° 0,1 mm 7 m/s 745 mmHg 78%
    07:00 +10°C° 0,1 mm 8 m/s 746 mmHg 74%
    08:00 +10°C° 0,3 mm 7 m/s 746 mmHg 72%
    09:00 +11°C° 0,3 mm 7 m/s 746 mmHg 71%
    10:00 +12°C° 0,3 mm 7 m/s 746 mmHg 69%
    11:00 +12°C° 0,7 mm 7 m/s 746 mmHg 72%
    12:00 +14°C° 0,7 mm 6 m/s 746 mmHg 74%
    13:00 +14°C° 0,7 mm 6 m/s 746 mmHg 77%
    14:00 +15°C° 0,5 mm 6 m/s 747 mmHg 74%
    15:00 +15°C° 0,5 mm 6 m/s 747 mmHg 71%
    16:00 +16°C° 0,5 mm 6 m/s 747 mmHg 69%
    17:00 +15°C° 0 mm 5 m/s 747 mmHg 67%
    18:00 +15°C° 0 mm 5 m/s 747 mmHg 66%
    19:00 +15°C° 0 mm 4 m/s 747 mmHg 64%
    20:00 +14°C° 0,1 mm 4 m/s 747 mmHg 69%
    21:00 +12°C° 0,1 mm 5 m/s 747 mmHg 75%
    22:00 +10°C° 0,1 mm 5 m/s 747 mmHg 80%
    23:00 +10°C° 0,4 mm 5 m/s 747 mmHg 84%

    Depois de amanhã, 23 Junho, Sábado

    Tempo Temperatura Precipitação Vento Pressão Humidade
    00:00 +10°C° 0,4 mm 5 m/s 747 mmHg 87%
    01:00 +10°C° 0,4 mm 5 m/s 747 mmHg 90%
    02:00 +10°C° 0,6 mm 5 m/s 747 mmHg 90%
    03:00 +10°C° 0,6 mm 5 m/s 747 mmHg 90%
    04:00 +10°C° 0,6 mm 5 m/s 747 mmHg 90%
    05:00 +10°C° 0,2 mm 5 m/s 747 mmHg 86%
    06:00 +11°C° 0,2 mm 6 m/s 747 mmHg 82%
    07:00 +13°C° 0,2 mm 6 m/s 747 mmHg 78%
    08:00 +14°C° 0,2 mm 6 m/s 747 mmHg 72%
    09:00 +15°C° 0,2 mm 6 m/s 747 mmHg 66%
    10:00 +16°C° 0,2 mm 6 m/s 748 mmHg 60%
    11:00 +16°C° 0,2 mm 5 m/s 748 mmHg 60%
    12:00 +17°C° 0,2 mm 5 m/s 748 mmHg 60%
    13:00 +17°C° 0,2 mm 5 m/s 748 mmHg 60%
    14:00 +17°C° 0 mm 5 m/s 748 mmHg 55%
    15:00 +19°C° 0 mm 5 m/s 748 mmHg 50%
    16:00 +19°C° 0 mm 5 m/s 748 mmHg 45%
    17:00 +19°C° 0 mm 5 m/s 748 mmHg 51%
    18:00 +18°C° 0 mm 4 m/s 748 mmHg 56%
    19:00 +17°C° 0 mm 4 m/s 748 mmHg 62%
    20:00 +15°C° 0,1 mm 4 m/s 748 mmHg 69%
    21:00 +13°C° 0,1 mm 3 m/s 749 mmHg 76%
    22:00 +12°C° 0,1 mm 3 m/s 749 mmHg 83%
    23:00 +12°C° 0,1 mm 3 m/s 749 mmHg 84%

    24 Junho, Domingo

    Tempo Temperatura Precipitação Vento Pressão Humidade
    00:00 +12°C° 0,1 mm 3 m/s 749 mmHg 86%
    01:00 +12°C° 0,1 mm 3 m/s 749 mmHg 87%
    02:00 +12°C° 0 mm 3 m/s 749 mmHg 89%
    03:00 +11°C° 0 mm 3 m/s 749 mmHg 92%
    04:00 +11°C° 0 mm 3 m/s 749 mmHg 95%
    05:00 +12°C° 0,1 mm 3 m/s 749 mmHg 88%
    06:00 +14°C° 0,1 mm 4 m/s 749 mmHg 82%
    07:00 +17°C° 0,1 mm 4 m/s 749 mmHg 75%
    08:00 +17°C° 0,4 mm 4 m/s 750 mmHg 71%
    09:00 +18°C° 0,4 mm 4 m/s 750 mmHg 68%
    10:00 +19°C° 0,4 mm 4 m/s 750 mmHg 64%
    11:00 +19°C° 0,4 mm 4 m/s 750 mmHg 61%
    12:00 +20°C° 0,4 mm 4 m/s 750 mmHg 59%
    13:00 +20°C° 0,4 mm 4 m/s 750 mmHg 57%
    14:00 +21°C° 0,2 mm 4 m/s 750 mmHg 54%
    15:00 +21°C° 0,2 mm 4 m/s 750 mmHg 51%
    16:00 +21°C° 0,2 mm 4 m/s 751 mmHg 48%
    17:00 +20°C° 0 mm 3 m/s 751 mmHg 52%
    18:00 +19°C° 0 mm 3 m/s 751 mmHg 56%
    19:00 +18°C° 0 mm 2 m/s 751 mmHg 60%
    20:00 +16°C° 0 mm 2 m/s 751 mmHg 65%
    21:00 +14°C° 0 mm 2 m/s 751 mmHg 71%
    22:00 +13°C° 0 mm 1 m/s 752 mmHg 76%
    23:00 +12°C° 0 mm 1 m/s 752 mmHg 78%

    25 Junho, Segunda-feira

    Tempo Temperatura Precipitação Vento Pressão Humidade
    00:00 +12°C° 0 mm 1 m/s 752 mmHg 79%
    01:00 +11°C° 0 mm 1 m/s 752 mmHg 80%
    02:00 +11°C° 0 mm 1 m/s 752 mmHg 80%
    03:00 +11°C° 0 mm 1 m/s 752 mmHg 81%
    04:00 +11°C° 0 mm 1 m/s 752 mmHg 81%
    05:00 +13°C° 0 mm 1 m/s 753 mmHg 73%
    06:00 +16°C° 0 mm 1 m/s 753 mmHg 66%
    07:00 +19°C° 0 mm 1 m/s 753 mmHg 58%
    08:00 +21°C° 0 mm 1 m/s 753 mmHg 51%
    09:00 +23°C° 0 mm 1 m/s 754 mmHg 45%
    10:00 +24°C° 0 mm 1 m/s 754 mmHg 39%
    11:00 +24°C° 0 mm 2 m/s 754 mmHg 39%
    12:00 +24°C° 0 mm 2 m/s 754 mmHg 39%
    13:00 +24°C° 0 mm 3 m/s 754 mmHg 39%
    14:00 +24°C° 0 mm 3 m/s 754 mmHg 41%
    15:00 +24°C° 0 mm 3 m/s 754 mmHg 42%
    16:00 +22°C° 0 mm 3 m/s 754 mmHg 44%
    17:00 +21°C° 0 mm 3 m/s 754 mmHg 49%
    18:00 +20°C° 0 mm 3 m/s 754 mmHg 54%
    19:00 +20°C° 0 mm 3 m/s 754 mmHg 59%
    20:00 +18°C° 0 mm 2 m/s 754 mmHg 65%
    21:00 +16°C° 0 mm 2 m/s 754 mmHg 72%
    22:00 +15°C° 0 mm 2 m/s 754 mmHg 79%
    23:00 +15°C° 0,2 mm 2 m/s 754 mmHg 80%

    26 Junho, Terça-feira

    Tempo Temperatura Precipitação Vento Pressão Humidade
    00:00 +15°C° 0,2 mm 2 m/s 754 mmHg 80%
    01:00 +15°C° 0,2 mm 2 m/s 754 mmHg 81%
    02:00 +15°C° 0,6 mm 2 m/s 754 mmHg 85%
    03:00 +15°C° 0,6 mm 2 m/s 754 mmHg 89%
    04:00 +15°C° 0,6 mm 2 m/s 754 mmHg 92%
    05:00 +15°C° 0,2 mm 2 m/s 754 mmHg 91%
    06:00 +16°C° 0,2 mm 3 m/s 754 mmHg 90%
    07:00 +17°C° 0,2 mm 3 m/s 754 mmHg 88%
    08:00 +18°C° 0,2 mm 3 m/s 754 mmHg 83%
    09:00 +19°C° 0,2 mm 3 m/s 754 mmHg 78%
    10:00 +20°C° 0,2 mm 3 m/s 754 mmHg 73%
    11:00 +20°C° 0,6 mm 4 m/s 754 mmHg 71%
    12:00 +21°C° 0,6 mm 4 m/s 754 mmHg 69%
    13:00 +22°C° 0,6 mm 4 m/s 753 mmHg 68%
    14:00 +22°C° 0,4 mm 4 m/s 753 mmHg 66%
    15:00 +22°C° 0,4 mm 4 m/s 753 mmHg 65%
    16:00 +22°C° 0,4 mm 4 m/s 753 mmHg 64%
    17:00 +21°C° 0,1 mm 4 m/s 753 mmHg 68%
    18:00 +20°C° 0,1 mm 4 m/s 754 mmHg 71%
    19:00 +19°C° 0,1 mm 3 m/s 754 mmHg 75%
    20:00 +18°C° 0 mm 3 m/s 754 mmHg 82%
    21:00 +16°C° 0 mm 2 m/s 754 mmHg 88%
    22:00 +15°C° 0 mm 2 m/s 754 mmHg 94%
    23:00 +14°C° 0 mm 2 m/s 754 mmHg 95%
    Mostrar mais